W4SNA-4 Weather Reports


Display with metric or nautical units.
time (UTC)temp
F
wind
direction
speed
MPH
gust
MPH
rain 1hr
in
rain 24hr
in
rain mn
in
humidity
%
barometer
mb
20260902195828 92 0 0.0 0.0 0.00 0.00 0.00 54 1013.1
20260902195328 92 0 0.0 0.0 0.00 0.00 0.00 54 1013.3
20260902194828 92 0 0.0 0.0 0.00 0.00 0.00 53 1013.3
20260902194331 92 0 0.0 0.0 0.00 0.00 0.00 53 1013.3
20260902193828 92 0 0.0 0.0 0.00 0.00 0.00 54 1013.5
20260902173501 90 0 0.0 0.0 0.00 0.00 0.00 57 1014.5
20260902173007 90 0 0.0 0.0 0.00 0.00 0.00 59 1014.5
20260902172501 90 0 0.0 0.0 0.00 0.00 0.00 58 1014.5
20260902172001 90 0 0.0 0.0 0.00 0.00 0.00 60 1014.5
20260902171500 90 0 0.0 0.0 0.00 0.00 0.00 62 1014.5
20260902171001 90 0 0.0 0.0 0.00 0.00 0.00 60 1014.6
20260902170500 90 0 0.0 0.0 0.00 0.00 0.00 61 1014.6
20260902170002 90 0 0.0 0.0 0.00 0.00 0.00 60 1014.6
20260902165501 90 0 0.0 0.0 0.00 0.00 0.00 61 1014.9
20260902165004 90 0 0.0 0.0 0.00 0.00 0.00 61 1014.9
20260902164502 90 0 0.0 0.0 0.00 0.00 0.00 61 1014.9
20260902164000 90 0 0.0 0.0 0.00 0.00 0.00 61 1015.1
20260902163504 90 0 0.0 0.0 0.00 0.00 0.00 61 1015.1
20260902163002 90 0 0.0 0.0 0.00 0.00 0.00 59 1015.1
20260902162500 89 0 0.0 0.0 0.00 0.00 0.00 59 1015.2
20260902162001 89 0 0.0 0.0 0.00 0.00 0.00 61 1015.2
20260902161500 89 0 0.0 0.0 0.00 0.00 0.00 61 1015.2
20260902161002 89 0 0.0 0.0 0.00 0.00 0.00 62 1015.2
20260902160008 89 0 0.0 0.0 0.00 0.00 0.00 63 1015.2
20260902155003 89 0 0.0 0.0 0.00 0.00 0.00 64 1015.2
20260902154505 90 0 0.0 0.0 0.00 0.00 0.00 64 1015.2
20260902154002 90 0 0.0 0.0 0.00 0.00 0.00 65 1015.2
20260902153502 89 0 0.0 0.0 0.00 0.00 0.00 62 1015.2
20260902153006 89 0 0.0 0.0 0.00 0.00 0.00 65 1015.2
20260902152506 88 0 0.0 0.0 0.00 0.00 0.00 70 1015.2
20260902151847 88 0 0.0 0.0 0.00 0.00 0.00 70 1015.2
20260902151346 88 0 0.0 0.0 0.00 0.00 0.00 69 1015.2
20260902150733 87 0 0.0 0.0 0.00 0.00 0.00 69 1015.2
20260902150233 87 0 0.0 0.0 0.00 0.00 0.00 69 1015.2
20260902145733 86 0 0.0 0.0 0.00 0.00 0.00 71 1015.2
20260902145233 86 0 0.0 0.0 0.00 0.00 0.00 72 1015.1
20260902144734 85 0 0.0 0.0 0.00 0.00 0.00 75 1015.1
20260902144239 84 0 0.0 0.0 0.00 0.00 0.00 74 1015.1
20260902143733 84 0 0.0 0.0 0.00 0.00 0.00 76 1015.0
20260902143234 84 0 0.0 0.0 0.00 0.00 0.00 76 1015.0
20260902142733 83 0 0.0 0.0 0.00 0.00 0.00 77 1015.0
20260902142233 83 0 0.0 0.0 0.00 0.00 0.00 78 1014.9
20260902141734 82 0 0.0 0.0 0.00 0.00 0.00 80 1014.9
20260902141236 81 0 0.0 0.0 0.00 0.00 0.00 80 1014.9
20260902140734 81 0 0.0 0.0 0.00 0.00 0.00 81 1014.8
20260902140233 80 0 0.0 0.0 0.00 0.00 0.00 82 1014.8
20260902135736 80 0 0.0 0.0 0.00 0.00 0.00 83 1014.8
20260902135233 79 0 0.0 0.0 0.00 0.00 0.00 84 1014.9
20260902134733 79 0 0.0 0.0 0.00 0.00 0.00 84 1014.9
20260902134233 79 0 0.0 0.0 0.00 0.00 0.00 84 1014.9
20260902133852 77 0 0.0 0.0 0.00 0.00 0.00 85 1014.9
20260902133756 79 0 0.0 0.0 0.00 0.00 0.00 85 1014.8
20260902133236 78 0 0.0 0.0 0.00 0.00 0.00 85 1014.8
20260902132733 78 0 0.0 0.0 0.00 0.00 0.00 85 1014.8
20260902132237 78 0 0.0 0.0 0.00 0.00 0.00 85 1014.9
20260902131733 77 0 0.0 0.0 0.00 0.00 0.00 85 1014.9
20260902131234 77 0 0.0 0.0 0.00 0.00 0.00 86 1014.9
20260902130735 77 0 0.0 0.0 0.00 0.00 0.00 86 1014.9
20260902130235 77 0 0.0 0.0 0.00 0.00 0.00 86 1014.9
20260902125733 77 0 0.0 0.0 0.00 0.00 0.00 86 1014.9
20260902125242 77 0 0.0 0.0 0.00 0.00 0.00 86 1014.9
20260902124734 77 0 0.0 0.0 0.00 0.00 0.00 86 1014.9
20260902124234 76 0 0.0 0.0 0.00 0.00 0.00 86 1014.9
20260902123733 76 0 0.0 0.0 0.00 0.00 0.00 86 1014.7
20260902123300 76 0 0.0 0.0 0.00 0.00 0.00 86 1014.7
20260902122734 76 0 0.0 0.0 0.00 0.00 0.00 86 1014.7
20260902122232 76 0 0.0 0.0 0.00 0.00 0.00 86 1014.7
20260902121735 76 0 0.0 0.0 0.00 0.00 0.00 86 1014.7
20260902121234 76 0 0.0 0.0 0.00 0.00 0.00 86 1014.7
20260902120507 76 0 0.0 0.0 0.00 0.00 0.00 86 1014.6
20260902120006 76 0 0.0 0.0 0.00 0.00 0.00 86 1014.6
20260902115508 76 0 0.0 0.0 0.00 0.00 0.00 86 1014.6
20260902115006 76 0 0.0 0.0 0.00 0.00 0.00 86 1014.6
20260902114506 76 0 0.0 0.0 0.00 0.00 0.00 86 1014.6
20260902114007 76 0 0.0 0.0 0.00 0.00 0.00 86 1014.6
20260902113509 76 0 0.0 0.0 0.00 0.00 0.00 86 1014.6
20260902113007 76 0 0.0 0.0 0.00 0.00 0.00 85 1014.6
20260902112508 76 0 0.0 0.0 0.00 0.00 0.00 85 1014.4
20260902112006 76 0 0.0 0.0 0.00 0.00 0.00 86 1014.4
20260902111510 76 0 0.0 0.0 0.00 0.00 0.00 85 1014.4
20260902111005 76 0 0.0 0.0 0.00 0.00 0.00 85 1014.2
20260902110455 76 0 0.0 0.0 0.00 0.00 0.00 85 1014.2
20260902105952 76 0 0.0 0.0 0.00 0.00 0.00 85 1014.2
20260902105452 76 0 0.0 0.0 0.00 0.00 0.00 86 1014.2
20260902104952 76 0 0.0 0.0 0.00 0.00 0.00 86 1014.2
20260902104452 76 0 0.0 0.0 0.00 0.00 0.00 85 1014.2
20260902103953 76 0 0.0 0.0 0.00 0.00 0.00 85 1014.2
20260902103451 77 0 0.0 0.0 0.00 0.00 0.00 85 1014.2
20260902102952 77 0 0.0 0.0 0.00 0.00 0.00 85 1014.2
20260902102459 77 0 0.0 0.0 0.00 0.00 0.00 84 1014.3
20260902101452 77 0 0.0 0.0 0.00 0.00 0.00 84 1014.3
20260902100951 77 0 0.0 0.0 0.00 0.00 0.00 84 1014.2
20260902100452 77 0 0.0 0.0 0.00 0.00 0.00 84 1014.2
20260902095956 77 0 0.0 0.0 0.00 0.00 0.00 85 1014.2
20260902095452 77 0 0.0 0.0 0.00 0.00 0.00 86 1014.1
20260902094957 76 0 0.0 0.0 0.00 0.00 0.00 86 1014.1
20260902094451 76 0 0.0 0.0 0.00 0.00 0.00 87 1014.1
20260902093751 76 0 0.0 0.0 0.00 0.00 0.00 87 1014.1
20260902093251 76 0 0.0 0.0 0.00 0.00 0.00 87 1014.1
20260902092751 76 0 0.0 0.0 0.00 0.00 0.00 87 1014.1
20260902092425 76 0 0.0 0.0 0.00 0.00 0.00 87 1014.1
20260902091750 76 0 0.0 0.0 0.00 0.00 0.00 87 1014.1
20260902091251 76 0 0.0 0.0 0.00 0.00 0.00 87 1014.1
20260902090751 76 0 0.0 0.0 0.00 0.00 0.00 88 1014.0
20260902090257 76 0 0.0 0.0 0.00 0.00 0.00 88 1014.0
20260902085751 76 0 0.0 0.0 0.00 0.00 0.00 88 1014.0
20260902085250 76 0 0.0 0.0 0.00 0.00 0.00 88 1013.7
20260902084751 76 0 0.0 0.0 0.00 0.00 0.00 88 1013.7
20260902084252 76 0 0.0 0.0 0.00 0.00 0.00 88 1013.7
20260902083752 76 0 0.0 0.0 0.00 0.00 0.00 87 1013.6
20260902083251 76 0 0.0 0.0 0.00 0.00 0.00 87 1013.6
20260902082751 76 0 0.0 0.0 0.00 0.00 0.00 87 1013.6
20260902082251 77 0 0.0 0.0 0.00 0.00 0.00 87 1013.6
20260902081752 77 0 0.0 0.0 0.00 0.00 0.00 87 1013.6
20260902081458 77 0 0.0 0.0 0.00 0.00 0.00 87 1013.6
20260902081251 77 0 0.0 0.0 0.00 0.00 0.00 87 1013.6
20260902080754 77 0 0.0 0.0 0.00 0.00 0.00 86 1013.6
20260902080251 77 0 0.0 0.0 0.00 0.00 0.00 86 1013.6
20260902075751 77 0 0.0 0.0 0.00 0.00 0.00 86 1013.6
20260902075250 77 0 0.0 0.0 0.00 0.00 0.00 86 1013.7
20260902074752 77 0 0.0 0.0 0.00 0.00 0.00 85 1013.7
20260902074254 78 0 0.0 0.0 0.00 0.00 0.00 85 1013.7
20260902073751 78 0 0.0 0.0 0.00 0.00 0.00 85 1013.6
20260902073251 78 0 0.0 0.0 0.00 0.00 0.00 84 1013.6
20260902072750 78 0 0.0 0.0 0.00 0.00 0.00 84 1013.6
20260902072251 78 0 0.0 0.0 0.00 0.00 0.00 84 1013.6
20260902071752 78 0 0.0 0.0 0.00 0.00 0.00 83 1013.6
20260902071251 79 0 0.0 0.0 0.00 0.00 0.00 83 1013.6
20260902071023 79 0 0.0 0.0 0.00 0.00 0.00 82 1013.6
20260902070751 79 0 0.0 0.0 0.00 0.00 0.00 82 1013.6
20260902070435 79 0 0.0 0.0 0.00 0.00 0.00 82 1013.6
20260902070251 79 0 0.0 0.0 0.00 0.00 0.00 82 1013.6
20260902065830 79 0 0.0 0.0 0.00 0.00 0.00 82 1013.6
20260902065751 79 0 0.0 0.0 0.00 0.00 0.00 82 1013.6
20260902065250 79 0 0.0 0.0 0.00 0.00 0.00 82 1013.6
20260902064751 79 0 0.0 0.0 0.00 0.00 0.00 81 1013.6
20260902064251 80 0 0.0 0.0 0.00 0.00 0.00 81 1013.6
20260902063751 80 0 0.0 0.0 0.00 0.00 0.00 79 1013.7
20260902063329 80 0 0.0 0.0 0.00 0.00 0.00 79 1013.7
20260902063257 80 0 0.0 0.0 0.00 0.00 0.00 79 1013.7
20260902062751 80 0 0.0 0.0 0.00 0.00 0.00 80 1013.7
20260902062252 80 0 0.0 0.0 0.00 0.00 0.00 80 1013.7
20260902061750 80 0 0.0 0.0 0.00 0.00 0.00 79 1013.7
20260902061251 81 0 0.0 0.0 0.00 0.00 0.00 78 1013.7
20260902060750 81 0 0.0 0.0 0.00 0.00 0.00 77 1013.6
20260902060251 81 0 0.0 0.0 0.00 0.00 0.00 77 1013.6
20260902055751 81 0 0.0 0.0 0.00 0.00 0.00 76 1013.6
20260902055250 81 0 0.0 0.0 0.00 0.00 0.00 75 1013.6
20260902054751 81 0 0.0 0.0 0.00 0.00 0.00 74 1013.6
20260902054251 82 0 0.0 0.0 0.00 0.00 0.00 74 1013.6
20260902053751 82 0 0.0 0.0 0.00 0.00 0.00 75 1013.6
20260902053250 82 0 0.0 0.0 0.00 0.00 0.00 74 1013.6
20260902052758 81 0 0.0 0.0 0.00 0.00 0.00 74 1013.6
20260902052251 81 0 0.0 0.0 0.00 0.00 0.00 75 1013.6
20260902051750 81 0 0.0 0.0 0.00 0.00 0.00 75 1013.6
20260902051254 81 0 0.0 0.0 0.00 0.00 0.00 75 1013.6
20260902050750 81 0 0.0 0.0 0.00 0.00 0.00 75 1013.6
20260902050251 81 0 0.0 0.0 0.00 0.00 0.00 76 1013.6
20260902045750 81 0 0.0 0.0 0.00 0.00 0.00 77 1013.6
20260902045257 81 0 0.0 0.0 0.00 0.00 0.00 76 1013.6
20260902044751 81 0 0.0 0.0 0.00 0.00 0.00 76 1013.6
20260902044251 81 0 0.0 0.0 0.00 0.00 0.00 75 1013.6
20260902043751 81 0 0.0 0.0 0.00 0.00 0.00 75 1013.6
20260902043250 81 0 0.0 0.0 0.00 0.00 0.00 75 1013.6
20260902042751 81 0 0.0 0.0 0.00 0.00 0.00 75 1013.6
20260902042046 81 0 0.0 0.0 0.00 0.00 0.00 75 1013.6
20260902041546 82 0 0.0 0.0 0.00 0.00 0.00 75 1013.6
20260902041046 82 0 0.0 0.0 0.00 0.00 0.00 74 1013.7
20260902040546 82 0 0.0 0.0 0.00 0.00 0.00 73 1013.7
20260902040046 83 0 0.0 0.0 0.00 0.00 0.00 73 1013.7
20260902035548 83 0 0.0 0.0 0.00 0.00 0.00 71 1013.7
20260902035046 84 0 0.0 0.0 0.00 0.00 0.00 69 1013.7
20260902034546 84 0 0.0 0.0 0.00 0.00 0.00 66 1013.7
20260902034046 85 0 0.0 0.0 0.00 0.00 0.00 64 1013.7
20260902033554 85 0 0.0 0.0 0.00 0.00 0.00 63 1013.7
20260902033046 85 0 0.0 0.0 0.00 0.00 0.00 62 1013.7
20260902032550 85 0 0.0 0.0 0.00 0.00 0.00 61 1013.6
20260902032046 86 0 0.0 0.0 0.00 0.00 0.00 61 1013.6
20260902031546 86 0 0.0 0.0 0.00 0.00 0.00 61 1013.6
20260902031045 86 0 0.0 0.0 0.00 0.00 0.00 62 1013.7
20260902030546 86 0 0.0 0.0 0.00 0.00 0.00 60 1013.7
20260902030046 86 0 0.0 0.0 0.00 0.00 0.00 60 1013.7
20260902025549 86 0 0.0 0.0 0.00 0.00 0.00 61 1013.7
20260902025046 86 0 0.0 0.0 0.00 0.00 0.00 61 1013.7
20260902024355 86 0 0.0 0.0 0.00 0.00 0.00 61 1013.7
20260902023858 86 0 0.0 0.0 0.00 0.00 0.00 61 1013.7
20260902023355 86 0 0.0 0.0 0.00 0.00 0.00 61 1013.7
20260902022856 86 0 0.0 0.0 0.00 0.00 0.00 61 1013.7
20260902022356 86 0 0.0 0.0 0.00 0.00 0.00 61 1013.7
20260902021855 86 0 0.0 0.0 0.00 0.00 0.00 61 1013.7
20260902021403 86 0 0.0 0.0 0.00 0.00 0.00 62 1013.7
20260902020856 86 0 0.0 0.0 0.00 0.00 0.00 62 1013.4
20260902020356 86 0 0.0 0.0 0.00 0.00 0.00 62 1013.4
20260902015855 86 0 0.0 0.0 0.00 0.00 0.00 63 1013.4
20260902015355 86 0 0.0 0.0 0.00 0.00 0.00 64 1013.2
20260902014856 86 0 0.0 0.0 0.00 0.00 0.00 64 1013.2
20260902014356 87 0 0.0 0.0 0.00 0.00 0.00 61 1013.2
20260902013856 87 0 0.0 0.0 0.00 0.00 0.00 59 1013.1
20260902013355 87 0 0.0 0.0 0.00 0.00 0.00 59 1013.1
20260902012857 87 0 0.0 0.0 0.00 0.00 0.00 60 1013.1
20260902012355 87 0 0.0 0.0 0.00 0.00 0.00 59 1013.1
20260902011855 87 0 0.0 0.0 0.00 0.00 0.00 60 1013.1
20260902011357 87 0 0.0 0.0 0.00 0.00 0.00 60 1013.1
20260902010859 87 0 0.0 0.0 0.00 0.00 0.00 60 1012.9
20260902010356 87 0 0.0 0.0 0.00 0.00 0.00 61 1012.9
20260902005857 87 0 0.0 0.0 0.00 0.00 0.00 61 1012.9
20260902005356 87 0 0.0 0.0 0.00 0.00 0.00 61 1012.8
20260902004856 87 0 0.0 0.0 0.00 0.00 0.00 62 1012.8
20260902004356 87 0 0.0 0.0 0.00 0.00 0.00 63 1012.8
20260902003859 87 0 0.0 0.0 0.00 0.00 0.00 63 1012.7
20260902003356 87 0 0.0 0.0 0.00 0.00 0.00 64 1012.7
20260902002902 87 0 0.0 0.0 0.00 0.00 0.00 63 1012.7
20260902002355 87 0 0.0 0.0 0.00 0.00 0.00 62 1012.7
20260902001859 87 0 0.0 0.0 0.00 0.00 0.00 61 1012.7
20260902001356 87 0 0.0 0.0 0.00 0.00 0.00 60 1012.7
20260902000855 87 0 0.0 0.0 0.00 0.00 0.00 60 1012.8
20260902000403 87 0 0.0 0.0 0.00 0.00 0.00 60 1012.8
20260901235855 87 0 0.0 0.0 0.00 0.00 0.00 60 1012.8
20260901235355 87 0 0.0 0.0 0.00 0.00 0.00 60 1012.8
20260901234859 87 0 0.0 0.0 0.00 0.00 0.00 60 1012.8
20260901234355 88 0 0.0 0.0 0.00 0.00 0.00 60 1012.8
20260901233858 88 0 0.0 0.0 0.00 0.00 0.00 60 1013.0
20260901233402 88 0 0.0 0.0 0.00 0.00 0.00 60 1013.0
20260901232856 88 0 0.0 0.0 0.00 0.00 0.00 59 1013.0
20260901232355 88 0 0.0 0.0 0.00 0.00 0.00 59 1013.1
20260901231855 88 0 0.0 0.0 0.00 0.00 0.00 60 1013.1
20260901231355 88 0 0.0 0.0 0.00 0.00 0.00 59 1013.1
20260901230855 88 0 0.0 0.0 0.00 0.00 0.00 59 1013.2
20260901230356 89 0 0.0 0.0 0.00 0.00 0.00 59 1013.2
20260901225855 89 0 0.0 0.0 0.00 0.00 0.00 59 1013.2
20260901225355 89 0 0.0 0.0 0.00 0.00 0.00 60 1013.1
20260901224855 89 0 0.0 0.0 0.00 0.00 0.00 59 1013.1
20260901224355 89 0 0.0 0.0 0.00 0.00 0.00 58 1013.1
20260901223856 89 0 0.0 0.0 0.00 0.00 0.00 59 1013.1
20260901223355 89 0 0.0 0.0 0.00 0.00 0.00 59 1013.1
20260901222547 89 0 0.0 0.0 0.00 0.00 0.00 58 1013.0
20260901222047 89 0 0.0 0.0 0.00 0.00 0.00 58 1013.0
20260901221547 89 0 0.0 0.0 0.00 0.00 0.00 58 1013.0
20260901221051 89 0 0.0 0.0 0.00 0.00 0.00 60 1013.1
20260901220547 89 0 0.0 0.0 0.00 0.00 0.00 59 1013.1
20260901220046 89 0 0.0 0.0 0.00 0.00 0.00 60 1013.1
20260901215310 89 0 0.0 0.0 0.00 0.00 0.00 57 1013.2
20260901214810 90 0 0.0 0.0 0.00 0.00 0.00 58 1013.2
20260901214311 90 0 0.0 0.0 0.00 0.00 0.00 57 1013.2
20260901213810 90 0 0.0 0.0 0.00 0.00 0.00 57 1013.2
20260901212852 90 0 0.0 0.0 0.00 0.00 0.00 58 1013.2
20260901212351 90 0 0.0 0.0 0.00 0.00 0.00 58 1013.2
20260901211852 90 0 0.0 0.0 0.00 0.00 0.00 57 1013.2
20260901211352 90 0 0.0 0.0 0.00 0.00 0.00 56 1013.2
20260901210851 90 0 0.0 0.0 0.00 0.00 0.00 57 1013.2
20260901210352 90 0 0.0 0.0 0.00 0.00 0.00 57 1013.2
20260901205856 90 0 0.0 0.0 0.00 0.00 0.00 57 1013.2
20260901205352 90 0 0.0 0.0 0.00 0.00 0.00 57 1013.2
20260901204852 90 0 0.0 0.0 0.00 0.00 0.00 56 1013.2
20260901204351 90 0 0.0 0.0 0.00 0.00 0.00 58 1013.2
20260901203852 90 0 0.0 0.0 0.00 0.00 0.00 58 1013.2
20260901203355 90 0 0.0 0.0 0.00 0.00 0.00 56 1013.2
20260901202851 90 0 0.0 0.0 0.00 0.00 0.00 55 1013.2
20260901202353 90 0 0.0 0.0 0.00 0.00 0.00 56 1013.4
20260901201854 90 0 0.0 0.0 0.00 0.00 0.00 56 1013.4